Location: George Washington National Forest Helicopter Landing Site
(38.6463°N, 79.0851°W)
Time: 21:40:00
(UTC-04:00)

Tiros 1 despin weight - Pass Details

Date: 27 August 2019
Orbit: 594 x 643 km, 48.2° (Epoch: 17 October)

Event Time Altitude Azimuth Distance (km) Brightness Sun altitude
Rises 00:47:58 0° 277° (W) 2,828 - -40.7°
Reaches altitude 10° 00:50:32 10° 290° (WNW) 1,932 - -40.8°
Maximum altitude 00:54:18 27° 349° (N) 1,172 - -40.9°
Drops below altitude 10° 00:58:08 10° 47° (NE) 1,956 - -41.0°
Sets 01:00:45 0° 60° (ENE) 2,870 - -41.0°
